Location: Ermatingen
(47.6706°N, 9.0857°E)
Time: 02:34:14
(UTC+00:00)

NOSS 2-2 (D) - Pass Details

Date: 18 September 2020
Orbit: 469 x 1739 km, 63.3° (Epoch: 23 October)

Event Time Altitude Azimuth Distance (km) Brightness Sun altitude
Rises 19:20:28 0° 227° (SW) 2,502 7.0 -19.0°
Reaches altitude 10° 19:22:31 10° 231° (SW) 1,630 6.0 -19.3°
Maximum altitude 19:25:59 63° 313° (NW) 557 3.5 -19.8°
Drops below altitude 10° 19:29:57 10° 36° (NE) 1,857 5.9 -20.4°
Enters shadow 19:32:21 - 40° (NE) 2,868 6.9 -20.8°
